Regional Weather Roundup
Issued by NWS

Home | Current Version | Previous Version | Text Only | Print | Product List | Glossary Off
Versions: 1 2 3 4 5 6 7 8 9 10 11 12 13 14 15 16 17 18 19 20 21 22 23 24 25 26 27 28 29 30 31 32 33 34 35 36 37 38 39 40 41 42 43 44 45 46 47 48 49 50

000
ASUS43 KDTX 241710
RWRMI
MICHIGAN HOURLY REGIONAL WEATHER ROUNDUP
NATIONAL WEATHER SERVICE DETROIT/PONTIAC MI
100 PM EDT SAT JUN 24 2017

NOTE: "FAIR" INDICATES FEW OR NO CLOUDS BELOW 12,000 FEET WITH NO
SIGNIFICANT WEATHER AND/OR OBSTRUCTION TO VISIBILITY.

MIZ047>049-052>055-059>063-066>070-074>076-081>083-241800-
SOUTHEAST LOWER MICHIGAN

CITY           SKY/WX    TMP DP  RH WIND       PRES   REMARKS
ADRIAN         PTSUNNY   74  52  46 W14       29.92R
ALMA           MOSUNNY   72  52  50 SW7G25    29.87S
ANN ARBOR      MOSUNNY   75  56  51 W12G18    29.89R
BAD AXE        MOSUNNY   72  51  48 W12G17    29.84S
CARO           PTSUNNY   72  57  58 W12G17    29.85R
DETROIT CITY   PTSUNNY   74  51  44 W10G21    29.86R
DETROIT        MOSUNNY   77  53  43 W16G28    29.89R
FLINT          MOSUNNY   74  51  44 W13G25    29.87R
GROSSE ILE     MOSUNNY   75  53  45 W10G20    29.88R
HILLSDALE      PTSUNNY   72  52  49 W13G20    29.93R
HOWELL         MOSUNNY   74  48  40 W17       29.89R

CITY           SKY/WX    TMP DP  RH WIND       PRES   REMARKS
JACKSON        PTSUNNY   74  55  51 W13G21    29.91R
LAMBERTVILLE   MOSUNNY   75  53  47 W10G17    29.91R
LANSING        MOSUNNY   76  51  41 W15G23    29.90R
LAPEER         PTSUNNY   73  50  44 W14G20    29.86S
MASON          PTSUNNY   74  54  49 SW10G21   29.90R
MONROE         MOSUNNY   76  56  48 W15G24    29.89R
MT. CLEMENS    MOSUNNY   78  53  42 SW15G22   29.84R
PONTIAC        PTSUNNY   74  51  44 W16G23    29.87R
PORT HOPE        N/A     71  53  52 W10G17    29.82R
PORT HURON     MOSUNNY   73  52  46 NW6       29.85S
TRI CITIES     PTSUNNY   72  55  55 W15       29.86R
MIDLAND        PTSUNNY   72  52  48 SW9       29.84R
TROY           PTSUNNY   76  44  32 W13G20    29.89R
SAGINAW HB     PTSUNNY   73  48  40 SW15G21   29.85R
$$
MIZ043>046-050>051-056>058-064>065-071>073-077>080-241800-
SOUTHWEST LOWER MICHIGAN

CITY           SKY/WX    TMP DP  RH WIND       PRES   REMARKS
BATTLE CREEK   PTSUNNY   73  54  51 W17G26    29.94R
BENTON HARBOR  CLOUDY    69  56  62 W15       29.98R
BIG RAPIDS     PTSUNNY   71  54  55 W8G20     29.86S
COLDWATER      CLOUDY    71  55  56 W12G17    29.93S
FREMONT        PTSUNNY   71  54  56 W13       29.89R
HOLLAND        CLOUDY    66  55  67 W8G20     29.96R
GRAND RAPIDS   PTSUNNY   69  57  65 W17G25    29.91R
IONIA          PTSUNNY   73  54  51 SW20      29.88R
KALAMAZOO      MOSUNNY   72  53  51 W16G22    29.94R
LUDINGTON      CLOUDY    64  57  77 NW10G18   29.90R
MARSHALL       PTSUNNY   72  54  53 W15       29.92R
MOUNT PLEASANT PTSUNNY   70  51  51 W7        29.85R
MUSKEGON       PTSUNNY   68  56  65 NW13G23   29.93R
SOUTH HAVEN    CLOUDY    67  57  71 W13       29.98R
$$
MIZ016>042-241800-
NORTHERN LOWER MICHIGAN

CITY           SKY/WX    TMP DP  RH WIND       PRES   REMARKS
ALPENA         MOSUNNY   73  52  47 W6        29.80R
BEAVER ISLAND  MOSUNNY   68  54  60 SW7       29.84R
BELLAIRE       MOSUNNY   67  51  56 W8        29.85R
CADILLAC       CLOUDY    67  51  57 W12G20    29.85S
CHARLEVOIX     MOSUNNY   64  53  68 W8        29.88R
FRANKFORT      CLOUDY    64  54  69 W8        29.88R
GAYLORD        MOSUNNY   68  48  48 W10G20    29.84R
GRAYLING       PTSUNNY   71  51  47 W12G18    29.84S
HARBOR SPRINGS MOSUNNY   63  56  77 SW12      29.84R
HOUGHTON LAKE  PTSUNNY   70  52  52 W10       29.85R
MANISTEE       PTSUNNY   64  55  72 W9        29.89R
OSCODA         PTSUNNY   73  49  42 W9G21     29.80R
PELLSTON       MOSUNNY   70  50  49 NW12      29.83R
ROGERS CITY    SUNNY     64  55  72 N9        29.82R
TRAVERSE CITY  CLOUDY    70  52  52 N7        29.83R
$$
MIZ007>008-015-241800-
EASTERN UPPER MICHIGAN

CITY           SKY/WX    TMP DP  RH WIND       PRES   REMARKS
KINROSS        SUNNY     65  48  54 NW8       29.82R
MACKINAC ISLAN MOSUNNY   61  55  79 SW7       29.82R
NEWBERRY       PTSUNNY   66  48  52 N8        29.82S
S. S. MARIE    SUNNY     67  51  56 W9        29.80R
MUNISING         N/A     59  52  77 N3        29.86R
$$
MIZ004>006-011>014-085-241800-
CENTRAL UPPER MICHIGAN

CITY           SKY/WX    TMP DP  RH WIND       PRES   REMARKS
MANISTIQUE     CLOUDY    67  51  55 NW6       29.83R
ESCANABA       CLOUDY    68  55  63 SE7       29.84S
SAWYER-GWINN   LGT RAIN  61  52  72 E3        29.86R
$$
MIZ001>003-009>011-084-241800-
WESTERN UPPER MICHIGAN

CITY           SKY/WX    TMP DP  RH WIND       PRES   REMARKS
IRON MOUNTAIN  LGT RAIN  59  55  87 NW9       29.86R
HOUGHTON       CLOUDY    56  51  84 W9        29.86R
COPPER HARBOR    N/A     55  50  83 N8        29.86R
IRONWOOD       CLOUDY    55  51  86 W12       29.92R
$$

ABBREVIATIONS USED IN REMARKS
   TC - TEMPERATURE IN CELSIUS
  WCI - WIND CHILL INDEX
   HX - HEAT INDEX
  VSB - VISIBILITY




USA.gov is the U.S. government's official web portal to all federal, state and local government web resources and services.